FW1574 Weather Reports


Display with metric or nautical units.
time (UTC)temp
F
wind
direction
speed
MPH
gust
MPH
rain 1hr
in
rain 24hr
in
rain mn
in
humidity
%
barometer
mb
20190218211636 50 5 2.0 7.0 0.00 0.79 0.18 57 1025.2
20190218204613 53 5 1.0 5.0 0.00 0.79 0.18 53 1024.9
20190218203143 53 344 0.0 4.0 0.00 0.79 0.18 52 1024.6
20190218201612 53 34 2.0 6.0 0.00 0.79 0.18 57 1024.4
20190218194559 51 355 0.0 2.0 0.00 0.79 0.18 59 1024.8
20190218193112 51 5 0.0 3.0 0.00 0.79 0.18 64 1024.8
20190218191639 50 46 0.0 2.0 0.00 0.79 0.18 63 1025.0
20190218184655 48 319 0.0 4.0 0.00 0.79 0.18 63 1025.0
20190218183059 48 10 0.0 5.0 0.00 0.79 0.18 68 1025.3
20190218181708 48 349 0.0 3.0 0.00 0.79 0.18 66 1025.3
20190218174657 47 347 0.0 3.0 0.00 0.79 0.18 73 1026.0
20190218173246 46 28 0.0 3.0 0.00 0.79 0.18 74 1025.7
20190218171625 46 311 0.0 4.0 0.00 0.79 0.18 72 1025.8
20190218164646 46 307 0.0 4.0 0.00 0.79 0.18 75 1025.8
20190218163205 46 335 0.0 4.0 0.00 0.79 0.18 75 1025.4
20190218161626 45 298 0.0 3.0 0.00 0.79 0.18 78 1025.5
20190218154637 45 325 1.0 3.0 0.00 0.79 0.18 78 1025.0
20190218153217 44 330 0.0 3.0 0.00 0.79 0.18 78 1024.8
20190218151659 44 355 0.0 3.0 0.00 0.79 0.18 80 1024.5
20190218144647 43 334 0.0 3.0 0.00 0.81 0.18 80 1024.4
20190218143224 43 9 1.0 4.0 0.00 0.81 0.18 81 1024.5
20190218141622 43 360 0.0 3.0 0.00 0.81 0.18 84 1023.8
20190218134655 43 300 0.0 1.0 0.00 0.87 0.18 85 1023.2
20190218133123 43 305 0.0 2.0 0.00 0.87 0.18 85 1022.6
20190218131617 43 290 1.0 3.0 0.00 0.87 0.18 86 1022.3
20190218124625 42 302 1.0 3.0 0.00 0.89 0.18 87 1021.6
20190218123126 42 331 0.0 1.0 0.00 0.89 0.18 87 1021.2
20190218121624 42 332 0.0 3.0 0.00 0.89 0.18 86 1020.8
20190218114658 43 316 2.0 5.0 0.00 0.89 0.18 89 1019.6
20190218113201 43 328 2.0 5.0 0.00 0.89 0.18 91 1019.3
20190218111707 43 310 2.0 6.0 0.00 0.89 0.18 93 1019.1
20190218104701 44 324 0.0 0.0 0.00 0.90 0.18 95 1018.7
20190218103108 44 324 0.0 0.0 0.00 0.90 0.18 96 1018.4
20190218101701 44 324 0.0 0.0 0.00 0.90 0.18 96 1017.7
20190218094704 45 324 0.0 2.0 0.00 0.90 0.18 96 1017.4
20190218093118 45 324 0.0 2.0 0.00 0.90 0.18 97 1017.0
20190218091616 46 324 0.0 0.0 0.00 0.90 0.18 97 1016.9
20190218084609 46 324 0.0 0.0 0.00 0.92 0.18 97 1016.6
20190218083107 47 324 0.0 3.0 0.01 0.92 0.18 97 1016.3
20190218081625 47 323 0.0 0.0 0.03 0.92 0.18 97 1016.7
20190218074602 47 323 0.0 1.0 0.06 0.92 0.18 97 1015.7
20190218073111 47 323 0.0 0.0 0.05 0.91 0.17 97 1015.7
20190218071609 48 323 0.0 0.0 0.04 0.89 0.15 97 1016.3
20190218064756 48 323 0.0 2.0 0.04 0.86 0.12 97 1014.2
20190218063157 49 291 0.0 0.0 0.06 0.86 0.12 97 1014.6
20190218061704 49 291 0.0 3.0 0.06 0.85 0.11 97 1015.0
20190218054603 51 321 0.0 2.0 0.10 0.82 0.08 98 1013.7
20190218053102 51 321 0.0 0.0 0.11 0.80 0.06 98 1013.6
20190218051625 51 321 0.0 0.0 0.13 0.79 0.05 98 1013.7
20190218044630 51 62 0.0 0.0 0.11 0.72 0.72 98 1013.5
20190218043126 50 62 0.0 0.0 0.11 0.69 0.69 97 1013.1
20190218041659 50 62 0.0 0.0 0.09 0.66 0.66 97 1013.5
20190218034615 50 229 0.0 1.0 0.10 0.61 0.61 97 1013.3
20190218033119 50 83 0.0 0.0 0.08 0.57 0.57 97 1013.3
20190218031624 50 83 0.0 0.0 0.10 0.56 0.56 97 1012.4
20190218024631 50 83 0.0 0.0 0.07 0.51 0.51 97 1012.1
20190218023127 50 83 0.0 0.0 0.08 0.50 0.50 97 1012.3
20190218021639 50 273 0.0 0.0 0.09 0.47 0.47 97 1012.7
20190218014945 50 252 0.0 0.0 0.09 0.44 0.44 97 1011.3
20190218013135 50 252 0.0 0.0 0.07 0.42 0.42 97 1011.3
20190218011710 50 252 0.0 3.0 0.07 0.38 0.38 97 1012.0
20190218004705 50 116 0.0 4.0 0.06 0.35 0.35 97 1009.5
20190218003158 50 148 0.0 3.0 0.08 0.35 0.35 97 1010.5
20190218001633 50 296 2.0 7.0 0.06 0.31 0.31 97 1011.1
20190217234720 50 194 0.0 2.0 0.08 0.28 0.28 97 1010.1
20190217233101 50 194 0.0 1.0 0.06 0.26 0.26 97 1010.3
20190217231625 50 194 0.0 3.0 0.06 0.25 0.25 97 1010.2
20190217224650 50 194 0.0 0.0 0.06 0.21 0.21 97 1010.2
20190217223117 50 211 0.0 2.0 0.06 0.20 0.20 96 1010.0
20190217221624 50 190 0.0 3.0 0.05 0.19 0.19 96 1009.7
20190217214612 51 194 0.0 2.0 0.02 0.15 0.15 96 1009.9
20190217213133 51 189 0.0 3.0 0.01 0.14 0.14 96 1009.5